When you browse on this site, cookies collect data to enhance your experience and personalize the content and advertising you see.
Visit our Privacy Policy to learn more. By continuing to use the site, you agree to this use of cookies and data.
  • In United Kingdom
  • List of Countries
  • For 7 days
  • Water Temperature
  • Weather Map
  • Weather Widgets
  • user-avatar
    Login

    Hourly Weather Mahilyow

    Today, 29 February, Saturday

    Time Temperature Precipitation Wind Pressure Humidity
    00:00 -1°C° 0 mm 3 mps 742 mmHg 80%
    01:00 -2°C° 0 mm 3 mps 742 mmHg 83%
    02:00 -2°C° 0 mm 3 mps 742 mmHg 83%
    03:00 -2°C° 0 mm 3 mps 742 mmHg 84%
    04:00 -2°C° 0 mm 3 mps 743 mmHg 85%
    05:00 -2°C° 0 mm 3 mps 743 mmHg 86%
    06:00 -2°C° 0 mm 3 mps 743 mmHg 83%
    07:00 -3°C° 0 mm 4 mps 743 mmHg 80%
    08:00 -2°C° 0 mm 4 mps 743 mmHg 78%
    09:00 -2°C° 0 mm 4 mps 743 mmHg 77%
    10:00 -1°C° 0 mm 5 mps 743 mmHg 76%
    11:00 0°C° 0 mm 5 mps 743 mmHg 75%
    12:00 0°C° 0 mm 5 mps 743 mmHg 73%
    13:00 0°C° 0 mm 5 mps 743 mmHg 71%
    14:00 0°C° 0 mm 4 mps 743 mmHg 69%
    15:00 0°C° 0 mm 4 mps 743 mmHg 69%
    16:00 +1°C° 0 mm 3 mps 743 mmHg 70%
    17:00 +1°C° 0 mm 3 mps 743 mmHg 70%
    18:00 +1°C° 0 mm 3 mps 743 mmHg 72%
    19:00 0°C° 0 mm 3 mps 744 mmHg 74%
    20:00 0°C° 0 mm 3 mps 744 mmHg 76%
    21:00 0°C° 0 mm 3 mps 744 mmHg 79%
    22:00 -1°C° 0 mm 3 mps 744 mmHg 82%
    23:00 -2°C° 0 mm 4 mps 744 mmHg 85%

    Tomorrow, 1 March, Sunday

    Time Temperature Precipitation Wind Pressure Humidity
    00:00 -2°C° 0 mm 4 mps 744 mmHg 84%
    01:00 -2°C° 0 mm 4 mps 744 mmHg 83%
    02:00 -2°C° 0 mm 5 mps 743 mmHg 82%
    03:00 -2°C° 0 mm 5 mps 743 mmHg 79%
    04:00 -2°C° 0 mm 5 mps 743 mmHg 76%
    05:00 -3°C° 0 mm 6 mps 742 mmHg 74%
    06:00 -2°C° 0 mm 6 mps 742 mmHg 73%
    07:00 -2°C° 0 mm 6 mps 742 mmHg 72%
    08:00 -2°C° 0 mm 6 mps 742 mmHg 71%
    09:00 -1°C° 0 mm 6 mps 742 mmHg 67%
    10:00 +2°C° 0 mm 7 mps 742 mmHg 63%
    11:00 +3°C° 0 mm 7 mps 742 mmHg 59%
    12:00 +3°C° 0 mm 7 mps 742 mmHg 59%
    13:00 +3°C° 0 mm 7 mps 742 mmHg 59%
    14:00 +4°C° 0 mm 7 mps 742 mmHg 59%
    15:00 +3°C° 0 mm 6 mps 742 mmHg 63%
    16:00 +3°C° 0 mm 5 mps 742 mmHg 66%
    17:00 +3°C° 0 mm 4 mps 741 mmHg 70%
    18:00 +2°C° 0.1 mm 5 mps 742 mmHg 78%
    19:00 +1°C° 0.1 mm 5 mps 742 mmHg 86%
    20:00 +1°C° 0.1 mm 5 mps 742 mmHg 94%
    21:00 +1°C° 0 mm 5 mps 742 mmHg 91%
    22:00 +1°C° 0 mm 4 mps 741 mmHg 88%
    23:00 +2°C° 0 mm 3 mps 741 mmHg 85%

    Day after tomorrow, 2 March, Monday

    Time Temperature Precipitation Wind Pressure Humidity
    00:00 +2°C° 0 mm 3 mps 741 mmHg 84%
    01:00 +1°C° 0 mm 4 mps 741 mmHg 83%
    02:00 +1°C° 0 mm 4 mps 741 mmHg 83%
    03:00 +1°C° 0 mm 4 mps 741 mmHg 84%
    04:00 +1°C° 0 mm 4 mps 741 mmHg 85%
    05:00 +2°C° 0 mm 3 mps 741 mmHg 86%
    06:00 +2°C° 0 mm 3 mps 741 mmHg 87%
    07:00 +2°C° 0 mm 3 mps 741 mmHg 88%
    08:00 +2°C° 0 mm 3 mps 741 mmHg 88%
    09:00 +3°C° 0 mm 3 mps 741 mmHg 88%
    10:00 +3°C° 0 mm 4 mps 741 mmHg 88%
    11:00 +3°C° 0 mm 4 mps 741 mmHg 88%
    12:00 +4°C° 0 mm 4 mps 740 mmHg 85%
    13:00 +3°C° 0 mm 5 mps 740 mmHg 82%
    14:00 +5°C° 0 mm 5 mps 740 mmHg 79%
    15:00 +3°C° 0.1 mm 5 mps 739 mmHg 83%
    16:00 +3°C° 0.1 mm 5 mps 739 mmHg 87%
    17:00 +2°C° 0.1 mm 5 mps 739 mmHg 90%
    18:00 +2°C° 0.4 mm 6 mps 738 mmHg 91%
    19:00 +2°C° 0.4 mm 6 mps 738 mmHg 92%
    20:00 +2°C° 0.4 mm 6 mps 738 mmHg 94%
    21:00 +2°C° 0.7 mm 6 mps 738 mmHg 94%
    22:00 +2°C° 0.7 mm 6 mps 737 mmHg 95%
    23:00 +1°C° 0.7 mm 6 mps 737 mmHg 95%

    3 March, Tuesday

    Time Temperature Precipitation Wind Pressure Humidity
    00:00 +2°C° 0.7 mm 5 mps 737 mmHg 95%
    01:00 +2°C° 0.7 mm 5 mps 737 mmHg 95%
    02:00 +4°C° 0.7 mm 4 mps 736 mmHg 95%
    03:00 +4°C° 0.7 mm 4 mps 737 mmHg 95%
    04:00 +4°C° 0.7 mm 4 mps 737 mmHg 95%
    05:00 +4°C° 0.7 mm 3 mps 737 mmHg 95%
    06:00 +4°C° 0 mm 4 mps 738 mmHg 93%
    07:00 +4°C° 0 mm 4 mps 738 mmHg 91%
    08:00 +3°C° 0 mm 5 mps 739 mmHg 90%
    09:00 +5°C° 0 mm 5 mps 740 mmHg 86%
    10:00 +5°C° 0 mm 5 mps 740 mmHg 82%
    11:00 +6°C° 0 mm 5 mps 741 mmHg 77%
    12:00 +7°C° 0 mm 5 mps 741 mmHg 71%
    13:00 +8°C° 0 mm 4 mps 741 mmHg 64%
    14:00 +10°C° 0 mm 3 mps 741 mmHg 57%
    15:00 +10°C° 0 mm 3 mps 741 mmHg 61%
    16:00 +9°C° 0 mm 3 mps 741 mmHg 65%
    17:00 +9°C° 0 mm 3 mps 740 mmHg 69%
    18:00 +8°C° 0 mm 3 mps 740 mmHg 71%
    19:00 +7°C° 0 mm 4 mps 740 mmHg 73%
    20:00 +6°C° 0 mm 5 mps 740 mmHg 75%
    21:00 +6°C° 0 mm 5 mps 740 mmHg 78%
    22:00 +6°C° 0 mm 5 mps 740 mmHg 81%
    23:00 +6°C° 0 mm 5 mps 740 mmHg 84%

    4 March, Wednesday

    Time Temperature Precipitation Wind Pressure Humidity
    00:00 +6°C° 0 mm 5 mps 740 mmHg 86%
    01:00 +6°C° 0 mm 5 mps 739 mmHg 88%
    02:00 +6°C° 0 mm 5 mps 739 mmHg 91%
    03:00 +6°C° 0 mm 5 mps 739 mmHg 91%
    04:00 +6°C° 0 mm 5 mps 738 mmHg 91%
    05:00 +7°C° 0 mm 5 mps 738 mmHg 91%
    06:00 +7°C° 0 mm 5 mps 738 mmHg 90%
    07:00 +7°C° 0 mm 5 mps 737 mmHg 88%
    08:00 +7°C° 0 mm 5 mps 737 mmHg 87%
    09:00 +7°C° 0.1 mm 5 mps 737 mmHg 87%
    10:00 +7°C° 0.1 mm 5 mps 736 mmHg 86%
    11:00 +7°C° 0.1 mm 5 mps 736 mmHg 86%
    12:00 +7°C° 0.4 mm 5 mps 736 mmHg 84%
    13:00 +8°C° 0.4 mm 5 mps 736 mmHg 82%
    14:00 +9°C° 0.4 mm 5 mps 735 mmHg 79%
    15:00 +10°C° 0 mm 4 mps 735 mmHg 78%
    16:00 +11°C° 0 mm 4 mps 735 mmHg 77%
    17:00 +11°C° 0 mm 3 mps 734 mmHg 76%
    18:00 +11°C° 0 mm 4 mps 734 mmHg 73%
    19:00 +10°C° 0 mm 5 mps 733 mmHg 70%
    20:00 +10°C° 0 mm 6 mps 733 mmHg 68%
    21:00 +10°C° 0.2 mm 6 mps 733 mmHg 70%
    22:00 +10°C° 0.2 mm 7 mps 733 mmHg 73%
    23:00 +9°C° 0.2 mm 7 mps 732 mmHg 76%

    5 March, Thursday

    Time Temperature Precipitation Wind Pressure Humidity
    00:00 +8°C° 0.5 mm 6 mps 733 mmHg 79%
    01:00 +7°C° 0.5 mm 6 mps 733 mmHg 82%
    02:00 +5°C° 0.5 mm 6 mps 733 mmHg 85%
    03:00 +5°C° 0 mm 6 mps 734 mmHg 84%
    04:00 +4°C° 0 mm 6 mps 735 mmHg 82%
    05:00 +4°C° 0 mm 6 mps 735 mmHg 81%
    06:00 +4°C° 0 mm 6 mps 736 mmHg 79%
    07:00 +3°C° 0 mm 6 mps 737 mmHg 78%
    08:00 +3°C° 0 mm 5 mps 738 mmHg 77%
    09:00 +3°C° 0 mm 5 mps 738 mmHg 74%
    10:00 +5°C° 0 mm 5 mps 738 mmHg 71%
    11:00 +5°C° 0 mm 5 mps 739 mmHg 69%
    12:00 +5°C° 0 mm 5 mps 739 mmHg 69%
    13:00 +5°C° 0 mm 4 mps 739 mmHg 69%
    14:00 +5°C° 0 mm 3 mps 739 mmHg 69%
    15:00 +5°C° 0 mm 3 mps 739 mmHg 69%
    16:00 +5°C° 0 mm 3 mps 739 mmHg 69%
    17:00 +4°C° 0 mm 3 mps 739 mmHg 70%
    18:00 +4°C° 0 mm 3 mps 739 mmHg 74%
    19:00 +3°C° 0 mm 3 mps 739 mmHg 78%
    20:00 +2°C° 0 mm 3 mps 740 mmHg 82%
    21:00 +2°C° 0 mm 3 mps 740 mmHg 85%
    22:00 +2°C° 0 mm 2 mps 740 mmHg 87%
    23:00 +2°C° 0 mm 2 mps 740 mmHg 90%
    Show more